This demonstration page uses our WeatherBlox Daily Observations layout. Learn more.

38.80484, -77.04692

Hourly Observations for September 3, 2016

Temp ( °F °C ) Dew Point ( °F °C ) Humidity (%) Winds ( mph kmh ) Pressure ( in mb ) Visibility ( mi km ) Precip ( " mm )
12:52 am 00:52 Cloudy 72 22.2 61 16.1 68 68 NNE 9 15 30.08 1019 10 16.0934 0 0
1:52 am 01:52 Cloudy 72 22.2 61 16.1 68 68 NNE 10 17 30.07 1018 10 16.0934 0 0
2:52 am 02:52 Cloudy 72 22.2 61 16.1 68 68 NNE 12 19 30.06 1018 10 16.0934 0 0
3:52 am 03:52 Cloudy 71 21.7 62 16.7 73 73 NNE 15 24 30.05 1018 10 16.0934 0 0
4:52 am 04:52 Cloudy 71 21.7 61 16.1 71 71 NNE 16 26 30.04 1017 10 16.0934 0 0
5:52 am 05:52 Cloudy 70 21.1 61 16.1 73 73 NNE 12 19 30.03 1017 10 16.0934 0 0
6:52 am 06:52 Mostly Cloudy 70 21.1 60 15.6 71 71 NNE 13 20 30.03 1017 10 16.0934 0 0
7:52 am 07:52 Mostly Cloudy 71 21.7 61 16.1 71 71 NNE 16 26 30.04 1017 10 16.0934 0 0
8:52 am 08:52 Mostly Cloudy 72 22.2 62 16.7 71 71 NNE 21 33 30.04 1017 10 16.0934 0 0
9:27 am 09:27 Mostly Cloudy 73 23 63 17 69 69 NNE 15 24 30.06 1018 10 16.0934 0 0
9:52 am 09:52 Mostly Cloudy 75 23.9 62 16.7 64 64 NNE 23 37 30.07 1018 10 16.0934 0 0
10:01 am 10:01 Mostly Cloudy 75 23.9 62 16.7 64 64 NE 22 35 30.06 1018 10 16.0934 0 0
10:52 am 10:52 Cloudy 76 24.4 63 17.2 64 64 NE 20 31 30.08 1019 10 16.0934 0 0
11:52 am 11:52 Mostly Cloudy 76 24.4 62 16.7 62 62 NE 22 35 30.08 1019 10 16.0934 0 0
12:52 pm 12:52 Cloudy 78 25.6 60 15.6 54 54 NE 24 39 30.09 1019 10 16.0934 0 0
1:52 pm 13:52 Mostly Cloudy 78 25.6 60 15.6 54 54 NE 23 37 30.1 1019 10 16.0934 0 0
2:52 pm 14:52 Mostly Cloudy 79 26.1 59 15 50 50 NE 15 24 30.09 1019 10 16.0934 0 0
3:52 pm 15:52 Mostly Cloudy 82 27.8 60 15.6 47 47 NE 20 31 30.07 1018 10 16.0934 0 0
4:52 pm 16:52 Mostly Cloudy 80 26.7 56 13.3 44 44 NE 18 30 30.07 1018 10 16.0934 0 0
5:52 pm 17:52 Mostly Cloudy 80 26.7 57 13.9 45 45 NNE 14 22 30.1 1019 10 16.0934 0 0
6:52 pm 18:52 Mostly Cloudy 78 25.6 58 14.4 50 50 ENE 12 19 30.11 1020 10 16.0934 0 0
7:52 pm 19:52 Mostly Cloudy 76 24.4 57 13.9 52 52 E 10 17 30.12 1020 10 16.0934 0 0
8:52 pm 20:52 Cloudy 75 23.9 58 14.4 55 55 E 9 15 30.14 1021 10 16.0934 0 0
9:52 pm 21:52 Cloudy 74 23.3 58 14.4 57 57 ENE 9 15 30.14 1021 10 16.0934 0 0
10:52 pm 22:52 Cloudy 74 23.3 58 14.4 57 57 ENE 8 13 30.15 1021 10 16.0934 0 0
11:52 pm 23:52 Cloudy 73 22.8 58 14.4 59 59 ENE 9 15 30.15 1021 10 16.0934 0 0

Powered by AerisWeather